Retour au catalogue

COSMOS 2251 DEB

ActifLEO
NORAD 34754·DEBRIS·🇷🇺 Russia

Lancé Jun 16, 1993 depuis Plesetsk Cosmodrome

Loading…

Prochains Passages (prochaines 24 heures)

TLE

FraisSource: Space-Track

Époque: Sep 14, 2026, 06:23 UTC

1 34754U 93036ZY  26257.26620271  .00000334  00000-0  11208-3 0  9997
2 34754  74.0285  77.7829 0028840 129.9016 285.4624 14.40792869921015

Suivez COSMOS 2251 DEB en temps réel avec AllMySat

Download on the App Store